This is the latest recevied weather packets stored in our database for station/object KE4LOJ. If no packets are shown the sender has not sent any weather packets the latest 10 day(s).
| Time | Temp. | Humidity | Pressure | Rain* | Wind** | Luminosity | Snow |
|---|---|---|---|---|---|---|---|
| 1777927886 | 25° C | 55% | 1016 hPa | 0 mm | - | 224 W/m² | - |
| 1777927585 | 25° C | 55% | 1016 hPa | 0 mm | - | 179 W/m² | - |
| 1777927284 | 25.56° C | 54% | 1015.7 hPa | 0 mm | - | 564 W/m² | - |
| 1777926983 | 25.56° C | 54% | 1015.8 hPa | 0 mm | - | 486 W/m² | - |
| 1777926680 | 25° C | 55% | 1015.9 hPa | 0 mm | - | 147 W/m² | - |
| 1777926380 | 25° C | 54% | 1016.2 hPa | 0 mm | - | 122 W/m² | - |
| 1777926077 | 25.56° C | 53% | 1015.9 hPa | 0 mm | - | 670 W/m² | - |
| 1777925774 | 26.67° C | 52% | 1016.1 hPa | 0 mm | - | 650 W/m² | - |
| 1777925472 | 26.11° C | 52% | 1016 hPa | 0 mm | - | 655 W/m² | - |
| 1777925168 | 25.56° C | 53% | 1016.3 hPa | 0 mm | - | 694 W/m² | - |
| 1777924864 | 25.56° C | 53% | 1016.2 hPa | 0 mm | - | 637 W/m² | - |
| 1777924561 | 25.56° C | 53% | 1016.3 hPa | 0 mm | - | 738 W/m² | - |
| 1777924257 | 25° C | 54% | 1016.3 hPa | 0 mm | - | 206 W/m² | - |
| 1777923954 | 25.56° C | 54% | 1016.4 hPa | 0 mm | - | 428 W/m² | - |
| 1777923649 | 25.56° C | 53% | 1016.6 hPa | 0 mm | - | 508 W/m² | - |
| 1777923346 | 26.11° C | 52% | 1016.5 hPa | 0 mm | - | 695 W/m² | - |
| 1777923045 | 25.56° C | 53% | 1016.3 hPa | 0 mm | - | 896 W/m² | - |
| 1777922743 | 25.56° C | 53% | 1016.5 hPa | 0 mm | - | 636 W/m² | - |
| 1777922441 | 25.56° C | 54% | 1016.5 hPa | 0 mm | - | 255 W/m² | - |
| 1777922138 | 25.56° C | 53% | 1016.6 hPa | 0 mm | - | 648 W/m² | - |
| 1777921834 | 25.56° C | 52% | 1016.7 hPa | 0 mm | - | 890 W/m² | - |
| 1777921531 | 25° C | 55% | 1016.8 hPa | 0 mm | - | 884 W/m² | - |
| 1777921227 | 25.56° C | 54% | 1016.9 hPa | 0 mm | - | 192 W/m² | - |
| 1777920924 | 25.56° C | 54% | 1017 hPa | 0 mm | - | 375 W/m² | - |
| 1777920620 | 25.56° C | 53% | 1016.9 hPa | 0 mm | - | 925 W/m² | - |
* Rain latest hour (hover to see other rain measurements)
** Current wind speed in m/s (hover to see current wind gust speed)